Location: Asheville, NC
(35.6000°N, 82.5500°W)
Time: 08:21:48
(UTC-04:00)

Envisat - Visible Passes

Search period start: 18 July 2018 00:00
Search period end: 28 July 2018 00:00
Orbit: 764 x 766 km, 98.2° (Epoch: 18 July)

Date Brightness Start Highest point End Pass type
(mag) Time Alt. Az. Time Alt. Az. Time Alt. Az.
19 Jul 5.3 21:44:33 10° SSW 21:48:30 23° W 21:52:28 10° NW visible
20 Jul 3.8 21:06:39 10° S 21:11:37 54° W 21:16:34 10° NNW visible
21 Jul 5.8 22:12:23 10° WSW 22:14:17 12° W 22:16:13 10° WNW visible
22 Jul 4.9 21:32:54 10° SSW 21:37:16 29° W 21:41:39 10° NW visible
24 Jul 5.6 22:00:00 10° SW 22:03:01 16° W 22:06:04 10° NW visible
25 Jul 4.5 21:21:23 10° SSW 21:26:03 37° W 21:30:45 10° NNW visible
27 Jul 5.4 21:48:02 10° SW 21:51:46 21° W 21:55:31 10° NW visible
